Find Zi Yuan 1-02C

NORAD ID: 38038 Int'l Des: 2011-079 Owner: ZZWYZ Country: CN operational
LEOCIRCULARRETROGRADESSO

当前视图

正在加载3D地球...

关于 Zi Yuan 1-02C

正在加载描述...

即将过境

Passes for default location (London). Set your location on the main map for personalized predictions.

高度历史

Loading altitude history...

两行轨道根数

1 38038U 11079A 26150.63171969 .00000783 00000-0 27191-3 0 9997
2 38038 98.4082 218.3065 0006542 12.3477 145.3685 14.38199907756686
Epoch: May 30, 2026 • Age: 10 hours

当前状态

高度 775.5 km
速度 7.47 km/s
星下点 75.67°N, 77.13°W
发射日期 Dec 22, 2011
运行时间 14.4 years
类型 other

技术详情

分类 Payload
质量 2100.00 kg
干质量 2000.00 kg
总质量 2100.00 kg
长度 1.80 m
直径 2.00 m
跨度 9.00 m
形状 Box + Pan
制造商 CAST
平台类型 ZY
阶段状态 In Orbit
所有者/国家 ZZWYZ/CN

Most Searched